URKAI UHQO-USEI

Flight info

Callsign URKAI
Flight time N/A
Altitude 2500
Route DCT
Aircraft PA24/L-SDFY/C

Departure

Time 2026-04-29 03:28
Airport Ozernovskiy Airport (UHQO)

Arrival

Time N/A
Airport USEI
Time Latitude Longitude Altitude Speed Heading
2026-04-29 03:21 51.50035 156.53466 16 ft 0 kts 201°
2026-04-29 03:24 51.50034 156.53465 16 ft 1 kts 199°
2026-04-29 03:24 51.50018 156.53516 14 ft 11 kts 106°
2026-04-29 03:24 51.49996 156.53657 14 ft 15 kts 102°
2026-04-29 03:25 51.49963 156.53825 17 ft 16 kts 103°
2026-04-29 03:25 51.49937 156.54006 16 ft 18 kts 102°
2026-04-29 03:25 51.49900 156.54209 14 ft 20 kts 105°
2026-04-29 03:25 51.49863 156.54432 12 ft 21 kts 105°
2026-04-29 03:26 51.49827 156.54657 16 ft 20 kts 103°
2026-04-29 03:26 51.49794 156.54884 15 ft 21 kts 102°
2026-04-29 03:26 51.49767 156.55094 17 ft 15 kts 97°
2026-04-29 03:26 51.49753 156.55218 17 ft 9 kts 104°
2026-04-29 03:27 51.49777 156.55266 17 ft 4 kts
2026-04-29 03:27 51.49787 156.55256 18 ft 0 kts 279°
2026-04-29 03:28 51.49787 156.55249 18 ft 11 kts 280°
2026-04-29 03:28 51.49867 156.54702 22 ft 80 kts 280°
2026-04-29 03:28 51.49992 156.53816 256 ft 86 kts 277°
2026-04-29 03:29 51.50110 156.52882 568 ft 86 kts 281°
2026-04-29 03:29 51.50263 156.51950 854 ft 89 kts 282°
2026-04-29 03:29 51.50357 156.51001 1167 ft 87 kts 260°
2026-04-29 03:29 51.50021 156.50208 1428 ft 91 kts 207°
2026-04-29 03:30 51.49391 156.49894 1696 ft 98 kts 198°
2026-04-29 03:30 51.48745 156.49679 2069 ft 94 kts 188°
2026-04-29 03:30 51.48106 156.49644 2446 ft 92 kts 177°
2026-04-29 03:30 51.47472 156.49824 2763 ft 93 kts 166°
2026-04-29 03:31 51.45989 156.50492 3011 ft 114 kts 166°
2026-04-29 03:31 51.45180 156.50911 3078 ft 126 kts 155°
2026-04-29 03:31 51.44433 156.51703 3110 ft 136 kts 145°
2026-04-29 03:32 51.43625 156.52393 3268 ft 125 kts 167°
2026-04-29 03:32 51.42763 156.52447 3362 ft 127 kts 186°
2026-04-29 03:32 51.41913 156.52238 3627 ft 116 kts 192°
2026-04-29 03:32 51.41192 156.51714 3803 ft 117 kts 217°
2026-04-29 03:33 51.40585 156.50906 4010 ft 112 kts 219°
2026-04-29 03:33 51.39852 156.50438 4128 ft 117 kts 192°
2026-04-29 03:33 51.39092 156.50115 4355 ft 112 kts 209°
2026-04-29 03:33 51.38453 156.49356 4469 ft 117 kts 217°
2026-04-29 03:34 51.37626 156.48763 4300 ft 140 kts 194°
2026-04-29 03:34 51.36646 156.48451 4197 ft 147 kts 191°
2026-04-29 03:34 51.35620 156.48118 4109 ft 149 kts 196°
2026-04-29 03:34 51.34659 156.47745 4202 ft 141 kts 185°
2026-04-29 03:35 51.33662 156.47726 4101 ft 148 kts 174°
2026-04-29 03:35 51.32649 156.47843 4100 ft 145 kts 181°
2026-04-29 03:35 51.31593 156.47655 3847 ft 157 kts 192°
2026-04-29 03:35 51.30568 156.47179 3863 ft 150 kts 206°
2026-04-29 03:36 51.29690 156.46309 3781 ft 153 kts 211°
2026-04-29 03:36 51.28710 156.45528 3599 ft 158 kts 205°
2026-04-29 03:36 51.27691 156.44892 3503 ft 157 kts 199°
2026-04-29 03:36 51.26703 156.44213 3409 ft 155 kts 208°
2026-04-29 03:37 51.25759 156.43404 3308 ft 155 kts 208°
2026-04-29 03:37 51.24809 156.42591 3206 ft 154 kts 212°
2026-04-29 03:37 51.23953 156.41554 3082 ft 156 kts 221°
2026-04-29 03:37 51.23153 156.40384 2969 ft 156 kts 224°
2026-04-29 03:38 51.22361 156.39194 2856 ft 155 kts 224°
2026-04-29 03:38 51.21590 156.37898 2513 ft 168 kts 227°
2026-04-29 03:38 51.20828 156.36574 2512 ft 156 kts 228°
2026-04-29 03:38 51.20088 156.35354 2504 ft 150 kts 220°
2026-04-29 03:39 51.19180 156.34601 2500 ft 147 kts 198°
2026-04-29 03:39 51.18203 156.34159 2485 ft 145 kts 196°
2026-04-29 03:39 51.17232 156.33738 2475 ft 144 kts 196°
2026-04-29 03:39 51.16280 156.33321 2475 ft 143 kts 196°
2026-04-29 03:40 51.15324 156.32901 2477 ft 142 kts 196°
2026-04-29 03:40 51.14373 156.32486 2478 ft 142 kts 196°
2026-04-29 03:40 51.13424 156.32073 2479 ft 141 kts 196°
2026-04-29 03:40 51.12473 156.31661 2479 ft 141 kts 196°
2026-04-29 03:41 51.11523 156.31251 2479 ft 141 kts 196°
2026-04-29 03:41 51.10573 156.30843 2480 ft 141 kts 196°
2026-04-29 03:41 51.09623 156.30436 2480 ft 142 kts 196°
2026-04-29 03:41 51.08658 156.30023 2485 ft 146 kts 196°
2026-04-29 03:42 51.07667 156.29598 2485 ft 149 kts 196°
2026-04-29 03:42 51.06663 156.29169 2484 ft 150 kts 195°
2026-04-29 03:42 51.05660 156.28742 2477 ft 152 kts 195°
2026-04-29 03:42 51.04636 156.28307 2476 ft 152 kts 195°
2026-04-29 03:43 51.03613 156.27876 2478 ft 152 kts 195°
2026-04-29 03:43 51.02588 156.27446 2479 ft 152 kts 195°
2026-04-29 03:43 51.01563 156.27016 2480 ft 152 kts 195°
2026-04-29 03:43 51.00536 156.26589 2480 ft 152 kts 195°
2026-04-29 03:44 50.99508 156.26162 2480 ft 152 kts 195°
2026-04-29 03:44 50.98491 156.25743 2480 ft 152 kts 195°
2026-04-29 03:44 50.97467 156.25322 2509 ft 150 kts 195°
2026-04-29 03:44 50.96458 156.24909 2536 ft 150 kts 195°
2026-04-29 03:45 50.95439 156.24494 2529 ft 151 kts 195°
2026-04-29 03:45 50.94416 156.24078 2522 ft 152 kts 195°
2026-04-29 03:45 50.93392 156.23663 2523 ft 152 kts 195°
2026-04-29 03:45 50.92363 156.23247 2522 ft 152 kts 195°
2026-04-29 03:46 50.91336 156.22832 2520 ft 152 kts 195°
2026-04-29 03:46 50.90308 156.22419 2522 ft 152 kts 195°
2026-04-29 03:46 50.89295 156.22013 2518 ft 152 kts 195°
2026-04-29 03:46 50.88262 156.21601 2521 ft 152 kts 195°
2026-04-29 03:47 50.87233 156.21193 2519 ft 152 kts 195°
2026-04-29 03:47 50.86204 156.20787 2521 ft 152 kts 195°
2026-04-29 03:47 50.85177 156.20383 2521 ft 152 kts 194°
2026-04-29 03:47 50.84146 156.19978 2522 ft 152 kts 194°
2026-04-29 03:48 50.83116 156.19576 2519 ft 152 kts 194°
2026-04-29 03:48 50.82084 156.19175 2521 ft 152 kts 194°
2026-04-29 03:48 50.81056 156.18776 2517 ft 151 kts 194°
2026-04-29 03:48 50.80078 156.18404 2460 ft 141 kts 194°
2026-04-29 03:49 50.79140 156.18050 2278 ft 134 kts 194°
2026-04-29 03:49 50.78263 156.17716 2078 ft 127 kts 194°
2026-04-29 03:49 50.77453 156.17410 1861 ft 115 kts 194°
2026-04-29 03:49 50.76709 156.17131 1717 ft 104 kts 194°
2026-04-29 03:50 50.76041 156.16884 1669 ft 94 kts 194°
2026-04-29 03:50 50.75439 156.16664 1659 ft 87 kts 194°
2026-04-29 03:50 50.74833 156.16443 1571 ft 88 kts 194°
2026-04-29 03:50 50.74228 156.16223 1396 ft 91 kts 194°
2026-04-29 03:51 50.73611 156.15999 1200 ft 92 kts 194°
2026-04-29 03:51 50.73027 156.15677 1084 ft 84 kts 224°
2026-04-29 03:51 50.72778 156.14898 1006 ft 78 kts 256°
2026-04-29 03:51 50.72667 156.14086 940 ft 75 kts 256°
2026-04-29 03:52 50.72513 156.13275 828 ft 75 kts 250°
2026-04-29 03:52 50.72284 156.12595 727 ft 66 kts 224°
2026-04-29 03:52 50.71891 156.12414 652 ft 62 kts 167°
2026-04-29 03:52 50.71429 156.12532 643 ft 74 kts 181°
2026-04-29 03:53 50.70906 156.12591 681 ft 72 kts 189°
2026-04-29 03:53 50.70453 156.12453 764 ft 65 kts 180°
2026-04-29 03:53 50.69968 156.12473 764 ft 71 kts 186°
2026-04-29 03:53 50.69532 156.12234 844 ft 61 kts 195°
2026-04-29 03:54 50.69136 156.12469 890 ft 74 kts 142°
2026-04-29 03:54 50.68914 156.13207 1005 ft 80 kts 86°
2026-04-29 03:54 50.69209 156.14008 1076 ft 93 kts 49°
2026-04-29 03:54 50.69715 156.14447 1293 ft 86 kts 359°
2026-04-29 03:55 50.70309 156.14811 1206 ft 108 kts 59°
2026-04-29 03:55 50.70873 156.15502 1360 ft 107 kts 18°
2026-04-29 03:55 50.71563 156.15361 1453 ft 104 kts 323°
2026-04-29 03:55 50.71892 156.14422 1455 ft 103 kts 270°
2026-04-29 03:56 50.71449 156.13603 1222 ft 119 kts 188°
2026-04-29 03:56 50.70700 156.13552 1106 ft 102 kts 187°
2026-04-29 03:56 50.70021 156.13432 885 ft 95 kts 191°
2026-04-29 03:56 50.69376 156.13241 660 ft 92 kts 196°
2026-04-29 03:57 50.68773 156.12962 379 ft 97 kts 226°
2026-04-29 03:57 50.68273 156.12525 368 ft 75 kts 191°
2026-04-29 03:57 50.67775 156.12413 350 ft 67 kts 190°
2026-04-29 03:57 50.67316 156.12437 325 ft 67 kts 163°
2026-04-29 03:58 50.66995 156.12945 335 ft 65 kts 101°
2026-04-29 03:58 50.67255 156.13500 322 ft 78 kts 15°
2026-04-29 03:58 50.67798 156.13387 417 ft 79 kts 333°
2026-04-29 03:58 50.68182 156.12849 581 ft 73 kts 282°
2026-04-29 03:59 50.68099 156.11995 619 ft 80 kts 241°
2026-04-29 03:59 50.67875 156.11188 680 ft 81 kts 251°
2026-04-29 03:59 50.67420 156.10745 660 ft 87 kts 168°
2026-04-29 03:59 50.67146 156.11531 458 ft 98 kts 80°
2026-04-29 04:00 50.67355 156.12521 319 ft 87 kts 66°
2026-04-29 04:00 50.67752 156.13080 357 ft 81 kts 10°
2026-04-29 04:00 50.68225 156.12741 378 ft 71 kts 295°
2026-04-29 04:00 50.68216 156.12019 405 ft 66 kts 248°
2026-04-29 04:01 50.67952 156.11537 463 ft 63 kts 202°
2026-04-29 04:01 50.67507 156.11693 423 ft 79 kts 134°
2026-04-29 04:01 50.67120 156.12421 214 ft 82 kts 131°
2026-04-29 04:01 50.66851 156.13053 359 ft 69 kts 106°
2026-04-29 04:02 50.66858 156.13846 415 ft 66 kts 94°
2026-04-29 04:02 50.66717 156.14564 418 ft 74 kts 133°
2026-04-29 04:02 50.66303 156.14944 507 ft 67 kts 157°
2026-04-29 04:02 50.65865 156.15187 561 ft 68 kts 163°
2026-04-29 04:03 50.65370 156.15432 672 ft 80 kts 165°
2026-04-29 04:03 50.64847 156.15595 949 ft 80 kts 172°
2026-04-29 04:03 50.64295 156.15658 1224 ft 79 kts 182°
2026-04-29 04:03 50.63742 156.15707 1471 ft 80 kts 169°
2026-04-29 04:04 50.63210 156.15874 1742 ft 78 kts 171°
2026-04-29 04:04 50.62615 156.16078 1897 ft 96 kts 172°
2026-04-29 04:04 50.61923 156.16174 2123 ft 103 kts 178°
2026-04-29 04:04 50.61197 156.16156 2392 ft 105 kts 187°
2026-04-29 04:05 50.60437 156.15976 2547 ft 116 kts 194°
2026-04-29 04:05 50.59593 156.15627 2552 ft 134 kts 196°
2026-04-29 04:05 50.58656 156.15230 2532 ft 144 kts 196°
2026-04-29 04:05 50.57659 156.14809 2501 ft 151 kts 195°
2026-04-29 04:06 50.56651 156.14384 2537 ft 151 kts 195°
2026-04-29 04:06 50.55657 156.13971 2530 ft 141 kts 195°
2026-04-29 04:06 50.54735 156.13595 2515 ft 135 kts 195°
2026-04-29 04:06 50.53828 156.13222 2514 ft 135 kts 195°
2026-04-29 04:07 50.52910 156.12844 2516 ft 137 kts 195°
2026-04-29 04:07 50.51988 156.12464 2485 ft 140 kts 195°
2026-04-29 04:07 50.51039 156.12075 2499 ft 139 kts 195°
2026-04-29 04:07 50.50114 156.11697 2508 ft 139 kts 195°
2026-04-29 04:08 50.49481 156.11440 2511 ft 139 kts 195°
2026-04-29 04:08 50.48240 156.10937 2514 ft 139 kts 195°
2026-04-29 04:08 50.47312 156.10481 2516 ft 140 kts 204°
2026-04-29 04:08 50.46456 156.09760 2516 ft 140 kts 212°
2026-04-29 04:09 50.45912 156.09222 2514 ft 140 kts 213°
2026-04-29 04:09 50.45091 156.08403 2514 ft 140 kts 213°
2026-04-29 04:09 50.44271 156.07584 2513 ft 140 kts 213°
2026-04-29 04:09 50.43450 156.06764 2514 ft 140 kts 213°
2026-04-29 04:10 50.42629 156.05946 2514 ft 140 kts 213°
2026-04-29 04:10 50.41806 156.05127 2514 ft 140 kts 213°
2026-04-29 04:10 50.40983 156.04309 2515 ft 140 kts 213°
2026-04-29 04:10 50.40161 156.03495 2514 ft 140 kts 213°
2026-04-29 04:11 50.39335 156.02678 2515 ft 140 kts 213°
2026-04-29 04:11 50.38522 156.01875 2514 ft 140 kts 213°
2026-04-29 04:11 50.37696 156.01062 2515 ft 140 kts 212°
2026-04-29 04:11 50.36871 156.00250 2515 ft 140 kts 212°
2026-04-29 04:12 50.36043 155.99437 2514 ft 140 kts 212°
2026-04-29 04:12 50.35217 155.98628 2514 ft 140 kts 212°
2026-04-29 04:12 50.34391 155.97820 2514 ft 140 kts 212°
2026-04-29 04:12 50.33572 155.96993 2513 ft 140 kts 216°
2026-04-29 04:13 50.32805 155.96056 2513 ft 140 kts 219°
2026-04-29 04:13 50.32046 155.95103 2513 ft 140 kts 219°
2026-04-29 04:13 50.31295 155.94159 2513 ft 140 kts 219°
2026-04-29 04:13 50.30536 155.93206 2488 ft 141 kts 219°
2026-04-29 04:14 50.29780 155.92264 2311 ft 139 kts 219°
2026-04-29 04:14 50.29017 155.91310 2055 ft 142 kts 219°
2026-04-29 04:14 50.28248 155.90348 1862 ft 140 kts 219°
2026-04-29 04:14 50.27499 155.89420 1658 ft 135 kts 219°
2026-04-29 04:15 50.26795 155.88544 1499 ft 125 kts 219°
2026-04-29 04:15 50.26155 155.87747 1359 ft 108 kts 219°
2026-04-29 04:15 50.25562 155.87013 1213 ft 109 kts 219°
2026-04-29 04:15 50.24978 155.86294 1134 ft 105 kts 219°
2026-04-29 04:16 50.24420 155.85608 1059 ft 101 kts 218°
2026-04-29 04:16 50.23877 155.84941 1017 ft 96 kts 219°
2026-04-29 04:16 50.23367 155.84317 1001 ft 91 kts 218°
2026-04-29 04:16 50.22868 155.83710 982 ft 90 kts 218°
2026-04-29 04:17 50.22380 155.83117 961 ft 90 kts 218°
2026-04-29 04:17 50.21889 155.82519 938 ft 89 kts 218°
2026-04-29 04:17 50.21425 155.81884 922 ft 89 kts 225°
2026-04-29 04:17 50.20991 155.81194 897 ft 89 kts 226°
2026-04-29 04:18 50.20640 155.80415 883 ft 89 kts 253°
2026-04-29 04:18 50.20682 155.79468 849 ft 90 kts 293°
2026-04-29 04:18 50.21094 155.78715 862 ft 95 kts 317°
2026-04-29 04:18 50.21610 155.78043 878 ft 97 kts 319°
2026-04-29 04:19 50.22082 155.77308 926 ft 95 kts 297°
2026-04-29 04:19 50.22172 155.76321 981 ft 92 kts 257°
2026-04-29 04:19 50.21891 155.75442 1019 ft 91 kts 237°
2026-04-29 04:19 50.21512 155.74568 892 ft 100 kts 234°
2026-04-29 04:20 50.21049 155.73867 767 ft 90 kts 203°
2026-04-29 04:20 50.20499 155.73837 585 ft 76 kts 149°
2026-04-29 04:20 50.20126 155.74418 455 ft 75 kts 134°
2026-04-29 04:20 50.19746 155.74955 318 ft 75 kts 144°
2026-04-29 04:21 50.19318 155.75423 145 ft 74 kts 142°
2026-04-29 04:21 50.18959 155.75889 38 ft 55 kts 143°
2026-04-29 04:21 50.18844 155.76023 35 ft 2 kts 140°
2026-04-29 04:21 50.18841 155.76027 35 ft 0 kts 143°
2026-04-29 04:22 50.18831 155.76028 35 ft 2 kts 225°
2026-04-29 04:22 50.18818 155.76000 36 ft 3 kts 237°
2026-04-29 04:22 50.18806 155.75964 36 ft 0 kts 244°